{"data":{"norad_id":67702,"epoch":"2026-09-19T13:12:35.242560Z","epoch_age_seconds":150873,"freshness":"FRESH","line1":"1 67702U 26025K   26262.55040790  .00011555  00000+0  35974-3 0  9992","line2":"2 67702  97.2843  12.5107 0000891  52.0376 308.0947 15.33439780 35725","mean_motion":15.3343978,"eccentricity":8.91e-5,"inclination_deg":97.2843,"raan_deg":12.5107,"arg_perigee_deg":52.0376,"mean_anomaly_deg":308.0947,"bstar":0.00035974,"rev_number":3572,"period_min":93.906524324027,"perigee_km":464.94893228224,"apogee_km":466.16847885697,"semimajor_km":6843.6957055696,"source":"CELESTRAK","updated_at":"2026-09-20T09:00:43.629247Z"}}